Regional Weather Roundup
Issued by NWS Charleston, SC

Current Version | Previous Version | Graphics & Text | Print | Product List | Glossary On
Versions: 1 2 3 4 5 6 7 8 9 10 11 12 13 14 15 16 17 18 19 20 21 22 23 24 25 26 27 28 29 30 31 32 33 34 35 36 37 38 39 40 41 42 43 44 45 46 47 48 49 50
000
ASUS42 KCHS 221312
RWRCHS

REGIONAL WEATHER ROUNDUP
NATIONAL WEATHER SERVICE CHARLESTON SC
900 AM EDT SUN OCT 22 2017

NOTE: "FAIR" INDICATES FEW OR NO CLOUDS BELOW 12,000 FEET WITH NO
SIGNIFICANT WEATHER AND/OR OBSTRUCTIONS TO VISIBILITY.

NOT ALL STATIONS ARE QUALITY CONTROLLED. USE DATA WITH CAUTION...
ESPECIALLY DEWPOINT OBSERVATIONS.

SCZ027-030-031-034>040-042>050-221400-
...SOUTHEAST SOUTH CAROLINA...

CITY           SKY/WX    TMP DP  RH WIND       PRES   REMARKS
N CHARLESTON   CLOUDY    70  67  90 E8        30.28R
WATERFRONT PRK   N/A     71  67  87 N7        30.12
JOHNS ISLAND   CLOUDY    72  66  83 NE7       30.28R
PINOPOLIS        N/A     70  66  88 E8        30.20R
MONCKS CORNER  FAIR      66  66 100 E7        30.30R
SUMMERVILLE    CLOUDY    68  64  88 NE3       30.29S
BEAUFORT MCAS  CLOUDY    71  68  90 MISG      30.26R
BEAUFORT ARPT  CLOUDY    70  66  88 NE8       30.26R
HILTON HEAD IS PTSUNNY   73  68  83 NE9       30.25R
WALTERBORO     CLOUDY    66  64  94 NE7       30.29R
ALLENDALE        N/A     64  64 100 CALM        N/A

...SOUTHERN MIDLANDS AND PEE DEE...

CITY           SKY/WX    TMP DP  RH WIND       PRES   REMARKS
GEORGETOWN     FAIR      68  68 100 NE6       30.31R
KINGSTREE      FAIR      63  61  94 CALM      30.32R
ORANGEBURG     SUNNY     64  62  93 NE7       30.30R
BARNWELL         N/A     66  66 100 NE5       30.29R
AIKEN          FAIR      61  61 100 E6        30.34R
MANNING        FAIR      64  64 100 MISG      30.31R
COLUMBIA       MOSUNNY   60  57  89 CALM      30.31R
SUMTER         SUNNY     62  61  97 NE7       30.30R
FLORENCE       SUNNY     61  60  97 NE5       30.34R FOG
MYRTLE BEACH   CLOUDY    69  65  86 E8        30.33R
N MYRTLE BEACH MOSUNNY   67  65  93 NE7       30.32R

$$

GAZ063-065-086>088-099>101-113>116-118-119-134>141-150-221400-
...SOUTHEAST GEORGIA...

CITY           SKY/WX    TMP DP  RH WIND       PRES   REMARKS
SAVANNAH ARPT  PTSUNNY   70  67  90 NE8       30.25R
HUNTER AAF     PTSUNNY   71  67  88 NE6       30.22R
FORT STEWART   CLOUDY    69  66  89 NE5       30.23R
STATESBORO     PTSUNNY   69  62  76 NE3       30.28R
SYLVANIA       MOSUNNY   67  66  97 E7        30.28R
CLAXTON        PTSUNNY   70  66  87 NE3       30.26R

...CSRA...CENTRAL AND FAR SOUTHEAST GEORGIA...

CITY           SKY/WX    TMP DP  RH WIND       PRES   REMARKS
THOMSON        PTSUNNY   56  53  92 SE6       30.33S
AUGUSTA-BUSH   PTSUNNY   65  62  90 CALM      30.29R
AUGUSTA-DANIEL MOSUNNY   67  63  87 E8        30.30R
SWAINSBORO     FAIR      68  68 100 MISG      30.27R
VIDALIA        CLOUDY    68  66  94 E3        30.25R
EASTMAN        CLOUDY    69  69 100 E5        30.27R
HAZLEHURST     FAIR      70  66  89 NE6       30.23R
ALMA           SUNNY     71  67  87 VRB3      30.23R
WAYCROSS       SUNNY     69  67  90 NE3       30.22R
JESUP          NOT AVBL
BAXLEY         FAIR      68  68 100 E8        30.23R
BRUNSWICK      PTSUNNY   72  70  94 E7        30.22R
SAINT SIMONS   MOSUNNY   76  73  91 E10       30.21R

$$

SCZ027-028-034-036>038-045-046-048>050-GAZ119-141-221400-
...LAKE AND SUPPLEMENTAL COASTAL OBSERVATIONS...

STATION/POSITION TIME  TEMP    WIND        PRES    WAVE   SWELL
                       AIR SEA DIR/SP/G            HT/PER HT/PER/DIR
                 (UTC) (F)     (DEG/KT/KT) (MB)    (FT/S) (FT/S/D)
WINYAH BAY       1145   72      50/  6     1026.0
LAKE MURRAY      1220   61      30/  1/  2 1025.4
ACE BASIN NERRS  1145   68      20/  2     1024.0
FORT PULASKI     1248   73 73   40/  7/ 10 1024.3R
SAPELO ISLAND    NOT AVBL

$$

ANZ835-935-AMZ111-154-330-350-352-354-370-450-454-472-221400-
...C-MAN AND BUOY OBSERVATIONS...

STATION/POSITION TIME  TEMP    WIND        PRES    WAVE   SWELL
                       AIR SEA DIR/SP/G            HT/PER HT/PER/DIR
                 (UTC) (F)     (DEG/KT/KT) (MB)    (FT/S) (FT/S/D)
BUOY 41004       1250   79 79   90/ 16/ 21 1024.2R   4/ 8   2/120/ 8
BUOY 41008       1250   74 77   80/ 14/ 16 1022.9R   5/ 7   3/130/ 7
FOLLY BEACH CMAN 1200   71      20/  9/ 11 1025.1R
CAPERS NEARSHORE 1208   70 73   40/ 12/ 16 1024.4R
FRIPP NEARSHORE  1208   74      40/ 12/ 16   N/A


STATION/POSITION TIME  TEMP    WIND        PRES    WAVE   SWELL
                       AIR SEA DIR/SP/G            HT/PER HT/PER/DIR
                 (UTC) (F)     (DEG/KT/KT) (MB)    (FT/S) (FT/S/D)
5E ST. MARYS GA  1230      77                N/A     5/ 7
FRYING PAN BUOY  1250   76 76   90/ 10/ 12 1026.2R   3/ 9   3/110/ 9
BUOY 41025       1250   76 81   70/  6/  8 1027.8R   3/ 9   3/100/ 9
CAPE LOOKOUT NC  1200   67      10/  8/  9 1026.9R
BUOY 41002       1250   77 80  100/ 14/ 16 1025.8R   4/ 9   3/100/ 9
BUOY 41010       NOT AVBL
ST AUGUSTINE FL  1300   79 77   90/  9/ 10 1022.0R


$$




USA.gov is the U.S. government's official web portal to all federal, state and local government web resources and services.